• In Uzbekistan
  • List of Countries
  • For 7 days
  • Water Temperature
  • Satellite Maps
  • Weather Map
  • Weather Widgets
  • user-avatar
    Login

    Hourly Weather Mapastepec

    Today, 24 February, Saturday

    Time Temperature Precipitation Wind Pressure Humidity
    00:00 +26°C° 0.2 mm 1 mps 758 mmHg 77%
    01:00 +25°C° 0 mm 1 mps 758 mmHg 76%
    02:00 +25°C° 0 mm 1 mps 757 mmHg 74%
    03:00 +25°C° 0 mm 1 mps 757 mmHg 73%
    04:00 +25°C° 0 mm 1 mps 757 mmHg 72%
    05:00 +25°C° 0 mm 1 mps 757 mmHg 71%
    06:00 +24°C° 0 mm 1 mps 757 mmHg 70%
    07:00 +27°C° 0 mm 1 mps 757 mmHg 63%
    08:00 +29°C° 0 mm 1 mps 757 mmHg 55%
    09:00 +32°C° 0 mm 1 mps 758 mmHg 48%
    10:00 +34°C° 0 mm 2 mps 757 mmHg 44%
    11:00 +36°C° 0 mm 3 mps 757 mmHg 40%
    12:00 +38°C° 0 mm 3 mps 757 mmHg 36%
    13:00 +37°C° 0 mm 3 mps 756 mmHg 41%
    14:00 +35°C° 0 mm 3 mps 756 mmHg 47%
    15:00 +34°C° 0 mm 3 mps 755 mmHg 52%
    16:00 +32°C° 0.2 mm 2 mps 755 mmHg 58%
    17:00 +31°C° 0.2 mm 2 mps 756 mmHg 64%
    18:00 +29°C° 0.2 mm 1 mps 756 mmHg 71%
    19:00 +28°C° 0.3 mm 1 mps 756 mmHg 74%
    20:00 +27°C° 0.3 mm 1 mps 757 mmHg 77%
    21:00 +26°C° 0.3 mm 1 mps 757 mmHg 80%
    22:00 +26°C° 0 mm 1 mps 757 mmHg 79%
    23:00 +26°C° 0 mm 1 mps 758 mmHg 78%

    Tomorrow, 25 February, Sunday

    Time Temperature Precipitation Wind Pressure Humidity
    00:00 +26°C° 0 mm 1 mps 758 mmHg 76%
    01:00 +26°C° 0.2 mm 1 mps 757 mmHg 76%
    02:00 +25°C° 0.2 mm 1 mps 757 mmHg 76%
    03:00 +25°C° 0.2 mm 1 mps 757 mmHg 77%
    04:00 +25°C° 0 mm 1 mps 757 mmHg 77%
    05:00 +25°C° 0 mm 1 mps 757 mmHg 77%
    06:00 +24°C° 0 mm 1 mps 757 mmHg 77%
    07:00 +27°C° 0 mm 1 mps 757 mmHg 69%
    08:00 +29°C° 0 mm 1 mps 758 mmHg 61%
    09:00 +31°C° 0 mm 1 mps 758 mmHg 54%
    10:00 +33°C° 0 mm 1 mps 758 mmHg 50%
    11:00 +35°C° 0 mm 2 mps 757 mmHg 46%
    12:00 +36°C° 0 mm 2 mps 757 mmHg 43%
    13:00 +36°C° 0.1 mm 3 mps 756 mmHg 44%
    14:00 +35°C° 0.1 mm 3 mps 756 mmHg 46%
    15:00 +35°C° 0.1 mm 3 mps 755 mmHg 47%
    16:00 +33°C° 0.1 mm 3 mps 755 mmHg 54%
    17:00 +31°C° 0.1 mm 2 mps 755 mmHg 61%
    18:00 +29°C° 0.1 mm 2 mps 756 mmHg 68%
    19:00 +28°C° 0 mm 2 mps 756 mmHg 72%
    20:00 +27°C° 0 mm 2 mps 757 mmHg 77%
    21:00 +26°C° 0 mm 2 mps 758 mmHg 81%
    22:00 +26°C° 0 mm 2 mps 758 mmHg 80%
    23:00 +25°C° 0 mm 2 mps 758 mmHg 78%

    Day after tomorrow, 26 February, Monday

    Time Temperature Precipitation Wind Pressure Humidity
    00:00 +25°C° 0 mm 2 mps 758 mmHg 77%
    01:00 +25°C° 0 mm 2 mps 758 mmHg 76%
    02:00 +25°C° 0 mm 2 mps 758 mmHg 75%
    03:00 +24°C° 0 mm 1 mps 757 mmHg 74%
    04:00 +24°C° 0 mm 2 mps 757 mmHg 72%
    05:00 +24°C° 0 mm 2 mps 757 mmHg 71%
    06:00 +24°C° 0 mm 2 mps 758 mmHg 69%
    07:00 +26°C° 0 mm 2 mps 758 mmHg 61%
    08:00 +29°C° 0 mm 1 mps 758 mmHg 52%
    09:00 +32°C° 0 mm 1 mps 759 mmHg 44%
    10:00 +34°C° 0 mm 2 mps 758 mmHg 40%
    11:00 +36°C° 0 mm 2 mps 758 mmHg 36%
    12:00 +38°C° 0 mm 3 mps 758 mmHg 33%
    13:00 +38°C° 0 mm 3 mps 757 mmHg 35%
    14:00 +37°C° 0 mm 4 mps 756 mmHg 38%
    15:00 +37°C° 0 mm 4 mps 755 mmHg 40%
    16:00 +35°C° 0 mm 3 mps 756 mmHg 50%
    17:00 +33°C° 0 mm 3 mps 756 mmHg 59%
    18:00 +29°C° 0 mm 2 mps 756 mmHg 69%
    19:00 +28°C° 0.3 mm 2 mps 757 mmHg 71%
    20:00 +27°C° 0.3 mm 2 mps 757 mmHg 73%
    21:00 +26°C° 0.3 mm 2 mps 758 mmHg 75%
    22:00 +25°C° 0.3 mm 2 mps 758 mmHg 71%
    23:00 +25°C° 0.3 mm 2 mps 758 mmHg 66%

    27 February, Tuesday

    Time Temperature Precipitation Wind Pressure Humidity
    00:00 +24°C° 0.3 mm 2 mps 758 mmHg 62%
    01:00 +24°C° 0 mm 2 mps 758 mmHg 60%
    02:00 +24°C° 0 mm 2 mps 758 mmHg 58%
    03:00 +24°C° 0 mm 2 mps 757 mmHg 56%
    04:00 +24°C° 0 mm 2 mps 757 mmHg 55%
    05:00 +23°C° 0 mm 2 mps 757 mmHg 55%
    06:00 +23°C° 0 mm 2 mps 758 mmHg 54%
    07:00 +26°C° 0 mm 1 mps 758 mmHg 48%
    08:00 +29°C° 0 mm 1 mps 758 mmHg 42%
    09:00 +32°C° 0 mm 1 mps 759 mmHg 36%
    10:00 +34°C° 0 mm 1 mps 758 mmHg 33%
    11:00 +37°C° 0 mm 2 mps 758 mmHg 30%
    12:00 +38°C° 0 mm 3 mps 757 mmHg 27%
    13:00 +38°C° 0 mm 3 mps 757 mmHg 30%
    14:00 +38°C° 0 mm 3 mps 756 mmHg 32%
    15:00 +38°C° 0 mm 4 mps 755 mmHg 35%
    16:00 +35°C° 0 mm 3 mps 755 mmHg 44%
    17:00 +32°C° 0 mm 2 mps 755 mmHg 53%
    18:00 +30°C° 0 mm 1 mps 755 mmHg 62%
    19:00 +29°C° 0.1 mm 1 mps 756 mmHg 67%
    20:00 +27°C° 0.1 mm 1 mps 757 mmHg 71%
    21:00 +26°C° 0.1 mm 1 mps 758 mmHg 76%
    22:00 +26°C° 0.1 mm 1 mps 758 mmHg 75%
    23:00 +25°C° 0.1 mm 1 mps 758 mmHg 73%

    28 February, Wednesday

    Time Temperature Precipitation Wind Pressure Humidity
    00:00 +25°C° 0.1 mm 1 mps 757 mmHg 72%
    01:00 +25°C° 0 mm 1 mps 757 mmHg 71%
    02:00 +25°C° 0 mm 1 mps 757 mmHg 71%
    03:00 +24°C° 0 mm 1 mps 756 mmHg 70%
    04:00 +24°C° 0 mm 2 mps 756 mmHg 70%
    05:00 +24°C° 0 mm 2 mps 757 mmHg 70%
    06:00 +24°C° 0 mm 2 mps 757 mmHg 69%
    07:00 +26°C° 0 mm 1 mps 757 mmHg 62%
    08:00 +29°C° 0 mm 1 mps 757 mmHg 54%
    09:00 +32°C° 0 mm 1 mps 757 mmHg 47%
    10:00 +34°C° 0 mm 2 mps 757 mmHg 43%
    11:00 +36°C° 0 mm 2 mps 756 mmHg 39%
    12:00 +37°C° 0 mm 3 mps 756 mmHg 36%
    13:00 +37°C° 0 mm 3 mps 755 mmHg 39%
    14:00 +36°C° 0 mm 3 mps 755 mmHg 43%
    15:00 +35°C° 0 mm 3 mps 754 mmHg 47%
    16:00 +33°C° 0 mm 3 mps 754 mmHg 54%
    17:00 +31°C° 0 mm 2 mps 754 mmHg 61%
    18:00 +29°C° 0 mm 2 mps 755 mmHg 69%
    19:00 +28°C° 0 mm 2 mps 755 mmHg 74%
    20:00 +27°C° 0 mm 1 mps 756 mmHg 79%
    21:00 +26°C° 0 mm 1 mps 757 mmHg 84%
    22:00 +25°C° 0 mm 1 mps 757 mmHg 84%
    23:00 +25°C° 0 mm 1 mps 757 mmHg 83%

    1 March, Thursday

    Time Temperature Precipitation Wind Pressure Humidity
    00:00 +25°C° 0 mm 2 mps 757 mmHg 82%
    01:00 +25°C° 0.1 mm 2 mps 756 mmHg 82%
    02:00 +25°C° 0.1 mm 2 mps 756 mmHg 82%
    03:00 +24°C° 0.1 mm 2 mps 756 mmHg 82%
    04:00 +24°C° 0 mm 2 mps 756 mmHg 82%
    05:00 +24°C° 0 mm 2 mps 756 mmHg 82%
    06:00 +24°C° 0 mm 2 mps 756 mmHg 82%
    07:00 +26°C° 0 mm 1 mps 756 mmHg 72%
    08:00 +29°C° 0 mm 1 mps 757 mmHg 63%
    09:00 +31°C° 0 mm 1 mps 757 mmHg 53%
    10:00 +33°C° 0 mm 1 mps 757 mmHg 47%
    11:00 +36°C° 0 mm 2 mps 756 mmHg 41%
    12:00 +37°C° 0 mm 2 mps 756 mmHg 35%
    13:00 +37°C° 0 mm 3 mps 755 mmHg 36%
    14:00 +37°C° 0 mm 3 mps 755 mmHg 37%
    15:00 +36°C° 0 mm 3 mps 754 mmHg 38%
    16:00 +35°C° 0 mm 3 mps 754 mmHg 45%
    17:00 +32°C° 0 mm 2 mps 754 mmHg 53%
    18:00 +30°C° 0 mm 2 mps 755 mmHg 60%
    19:00 +29°C° 0 mm 2 mps 755 mmHg 65%
    20:00 +28°C° 0 mm 2 mps 756 mmHg 69%
    21:00 +27°C° 0 mm 2 mps 757 mmHg 74%
    22:00 +26°C° 0 mm 2 mps 757 mmHg 73%
    23:00 +26°C° 0 mm 2 mps 757 mmHg 72%
    Show more